Terminal Aerodrome Forecast
Issued by NWS

Home | Current Version | Previous Version | Text Only | Print | Product List | Glossary On
Versions: 1 2 3 4 5 6 7 8 9 10 11 12 13 14
000
FTUS44 KOUN 300524
TAFCSM
TAF
KCSM 300524Z 3006/3106 07006KT P6SM SCT050 BKN120
     FM301800 08007KT P6SM SCT060 BKN100 PROB30 3018/3024 P6SM TS
      BKN050CB=

USA.gov is the U.S. government's official web portal to all federal, state and local government web resources and services.